Startpagina
METAR-TAF:

METAR-TAF

Vliegvelden :

Yellowstone Lake, Wyoming, Verenigde Staten

breedte: 44-32-40N, lengte: 110-25-16W, hoogte: 2388 m

Actueel weer

Dit bericht is 57 minuten geleden gemaakt, om 22:56 UTC
Wind 3 kt uit variabele richting
Temperatuur 9°C
Vochtigheid 21%
Druk 1018 hPa

METAR: KP60 212256Z AUTO VRB03KT 09/M12 A3005 RMK AO1 SLP180 T00891122 $

Tijdstip: 17:53 (23:53 UTC)


TAF: ontbreekt

Waarnemingen en weersverwachtingen van meer dan 4000 vliegvelden (METAR en TAF).

De beschikbare stations zijn de gele en rode punten op de kaart.

Ga met uw muis naar het station om de naam te zien.

Klik dan om waarnemingen en weersverwachtingen te zien.

kaart wijzigen: klik op de groene knoppen met een zwart kruis om in te zoomen, op de groene knop met een streepje om uit te zoomen of op de groene pijlen voor aangrenzende kaarten.


METAR-TAF: